Time,TemperatureF,DewpointF,PressureIn,WindDirection,WindDirectionDegrees,WindSpeedMPH,WindSpeedGustMPH,Humidity,HourlyPrecipIn,Conditions,Clouds,dailyrainin,SolarRadiationWatts/m^2,SoftwareType,DateUTC
2013-09-23 00:01:00,68.5,63.8,29.85,North,9,0.0,0.0,85,0.00,,BKN047,0.49,0.00,VWS V14.01,2013-09-23 04:01:00,
2013-09-23 00:06:00,68.3,64.0,29.85,North,9,0.0,0.0,86,0.00,,BKN047,0.00,0.00,VWS V14.01,2013-09-23 04:06:00,
2013-09-23 00:11:00,68.1,63.8,29.85,North,9,0.0,0.0,86,0.00,,BKN047,0.00,0.00,VWS V14.01,2013-09-23 04:11:00,
2013-09-23 00:16:00,68.0,64.0,29.85,North,9,0.0,1.0,87,0.00,,BKN047,0.00,0.00,VWS V14.01,2013-09-23 04:16:00,
2013-09-23 00:21:00,67.9,63.9,29.85,North,9,0.0,2.0,87,0.00,,FEW047,0.00,0.00,VWS V14.01,2013-09-23 04:21:00,
2013-09-23 00:26:00,67.7,63.7,29.86,North,9,0.0,1.0,87,0.00,,FEW047,0.00,0.00,VWS V14.01,2013-09-23 04:26:00,
2013-09-23 00:31:00,67.5,63.8,29.86,North,9,0.0,0.0,88,0.00,,FEW047,0.00,0.00,VWS V14.01,2013-09-23 04:31:00,
2013-09-23 00:36:00,67.4,63.7,29.86,North,9,0.0,0.0,88,0.00,,FEW047,0.00,0.00,VWS V14.01,2013-09-23 04:36:00,
2013-09-23 00:41:00,67.2,63.5,29.86,North,9,0.0,1.0,88,0.00,,FEW047,0.00,0.00,VWS V14.01,2013-09-23 04:41:00,
2013-09-23 00:46:00,67.1,63.8,29.86,North,9,0.0,2.0,89,0.00,,FEW047,0.00,0.00,VWS V14.01,2013-09-23 04:46:00,
2013-09-23 00:51:00,66.9,63.6,29.86,North,9,0.0,3.0,89,0.00,,FEW047,0.00,0.00,VWS V14.01,2013-09-23 04:51:00,
2013-09-23 00:56:00,66.8,63.8,29.86,NNE,14,0.0,3.0,90,0.00,,FEW047,0.00,0.00,VWS V14.01,2013-09-23 04:56:00,
2013-09-23 01:01:00,66.7,63.7,29.86,NNE,28,0.0,3.0,90,0.00,,CLR,0.00,0.00,VWS V14.01,2013-09-23 05:01:00,
2013-09-23 01:06:00,66.7,63.7,29.86,NNE,21,1.0,4.0,90,0.00,,CLR,0.00,0.00,VWS V14.01,2013-09-23 05:06:00,
2013-09-23 01:11:00,66.8,63.5,29.86,North,5,0.0,4.0,89,0.00,,CLR,0.00,0.00,VWS V14.01,2013-09-23 05:11:00,
2013-09-23 01:16:00,66.8,63.5,29.86,North,9,3.0,3.0,89,0.00,,CLR,0.00,0.00,VWS V14.01,2013-09-23 05:16:00,
2013-09-23 01:21:00,66.8,63.5,29.86,NE,54,1.0,5.0,89,0.00,,CLR,0.00,0.00,VWS V14.01,2013-09-23 05:21:00,
2013-09-23 01:26:00,66.9,63.2,29.86,NE,37,2.0,4.0,88,0.00,,CLR,0.00,0.00,VWS V14.01,2013-09-23 05:26:00,
2013-09-23 01:31:00,67.0,63.3,29.87,NE,51,1.0,4.0,88,0.00,,CLR,0.00,0.00,VWS V14.01,2013-09-23 05:31:00,
2013-09-23 01:36:00,67.1,63.4,29.87,NE,53,0.0,4.0,88,0.00,,CLR,0.00,0.00,VWS V14.01,2013-09-23 05:36:00,
2013-09-23 01:41:00,67.1,63.1,29.87,ENE,69,2.0,3.0,87,0.00,,CLR,0.00,0.00,VWS V14.01,2013-09-23 05:41:00,
2013-09-23 01:46:00,67.1,63.1,29.87,North,355,0.0,4.0,87,0.00,,CLR,0.00,0.00,VWS V14.01,2013-09-23 05:46:00,
2013-09-23 01:51:00,67.0,63.0,29.86,NE,53,0.0,3.0,87,0.00,,CLR,0.00,0.00,VWS V14.01,2013-09-23 05:51:00,
2013-09-23 01:56:00,67.0,63.3,29.87,NE,42,2.0,2.0,88,0.00,,CLR,0.00,0.00,VWS V14.01,2013-09-23 05:56:00,
2013-09-23 02:01:00,66.9,63.2,29.87,NE,42,1.0,4.0,88,0.00,,CLR,0.00,0.00,VWS V14.01,2013-09-23 06:01:00,
2013-09-23 02:06:00,66.8,63.1,29.87,NE,55,2.0,2.0,88,0.00,,CLR,0.00,0.00,VWS V14.01,2013-09-23 06:06:00,
2013-09-23 02:11:00,66.8,63.1,29.87,NE,53,1.0,4.0,88,0.00,,CLR,0.00,0.00,VWS V14.01,2013-09-23 06:11:00,
2013-09-23 02:16:00,66.7,63.0,29.88,ENE,58,0.0,3.0,88,0.00,,CLR,0.00,0.00,VWS V14.01,2013-09-23 06:16:00,
2013-09-23 02:21:00,66.6,62.9,29.88,NE,47,0.0,2.0,88,0.00,,CLR,0.00,0.00,VWS V14.01,2013-09-23 06:21:00,
2013-09-23 02:26:00,66.4,63.1,29.88,NE,53,0.0,3.0,89,0.00,,CLR,0.00,0.00,VWS V14.01,2013-09-23 06:26:00,
2013-09-23 02:31:00,66.3,63.0,29.87,NE,46,2.0,3.0,89,0.00,,CLR,0.00,0.00,VWS V14.01,2013-09-23 06:31:00,
2013-09-23 02:36:00,66.2,62.9,29.87,ENE,67,1.0,3.0,89,0.00,,CLR,0.00,0.00,VWS V14.01,2013-09-23 06:36:00,
2013-09-23 02:41:00,66.1,63.1,29.87,NW,325,1.0,3.0,90,0.00,,CLR,0.00,0.00,VWS V14.01,2013-09-23 06:41:00,
2013-09-23 02:46:00,66.0,62.7,29.87,East,84,1.0,5.0,89,0.00,,CLR,0.00,0.00,VWS V14.01,2013-09-23 06:46:00,
2013-09-23 02:51:00,65.9,62.6,29.88,ENE,58,1.0,3.0,89,0.00,,CLR,0.00,0.00,VWS V14.01,2013-09-23 06:51:00,
2013-09-23 02:56:00,65.9,62.9,29.87,ENE,58,0.0,1.0,90,0.00,,CLR,0.00,0.00,VWS V14.01,2013-09-23 06:56:00,
2013-09-23 03:01:00,65.8,62.8,29.87,ENE,62,0.0,5.0,90,0.00,,CLR,0.00,0.00,VWS V14.01,2013-09-23 07:01:00,
2013-09-23 03:06:00,65.7,62.7,29.87,NNE,31,1.0,4.0,90,0.00,,CLR,0.00,0.00,VWS V14.01,2013-09-23 07:06:00,
2013-09-23 03:11:00,65.6,62.6,29.88,ENE,57,0.0,2.0,90,0.00,,CLR,0.00,0.00,VWS V14.01,2013-09-23 07:11:00,
2013-09-23 03:16:00,65.5,62.5,29.88,ENE,64,0.0,2.0,90,0.00,,CLR,0.00,0.00,VWS V14.01,2013-09-23 07:16:00,
2013-09-23 03:21:00,65.3,62.3,29.88,NE,39,0.0,4.0,90,0.00,,CLR,0.00,0.00,VWS V14.01,2013-09-23 07:21:00,
2013-09-23 03:26:00,65.2,61.9,29.88,NNE,16,0.0,4.0,89,0.00,,CLR,0.00,0.00,VWS V14.01,2013-09-23 07:26:00,
2013-09-23 03:31:00,65.2,61.9,29.88,NNW,345,0.0,3.0,89,0.00,,CLR,0.00,0.00,VWS V14.01,2013-09-23 07:31:00,
2013-09-23 03:36:00,65.2,62.2,29.88,NE,48,1.0,3.0,90,0.00,,CLR,0.00,0.00,VWS V14.01,2013-09-23 07:36:00,
2013-09-23 03:41:00,65.2,62.2,29.88,NE,52,0.0,3.0,90,0.00,,CLR,0.00,0.00,VWS V14.01,2013-09-23 07:41:00,
2013-09-23 03:46:00,65.1,62.1,29.88,ENE,65,1.0,3.0,90,0.00,,CLR,0.00,0.00,VWS V14.01,2013-09-23 07:46:00,
2013-09-23 03:51:00,65.0,61.7,29.88,East,79,6.0,6.0,89,0.00,,CLR,0.00,0.00,VWS V14.01,2013-09-23 07:51:00,
2013-09-23 03:56:00,64.9,61.3,29.88,ENE,61,1.0,3.0,88,0.00,,CLR,0.00,0.00,VWS V14.01,2013-09-23 07:56:00,
2013-09-23 04:01:00,64.9,60.9,29.88,NE,46,1.0,8.0,87,0.00,,CLR,0.00,0.00,VWS V14.01,2013-09-23 08:01:00,
2013-09-23 04:06:00,64.9,60.9,29.88,ENE,76,1.0,5.0,87,0.00,,CLR,0.00,0.00,VWS V14.01,2013-09-23 08:06:00,
2013-09-23 04:11:00,65.0,60.7,29.88,NE,53,2.0,5.0,86,0.00,,CLR,0.00,0.00,VWS V14.01,2013-09-23 08:11:00,
2013-09-23 04:16:00,64.9,60.3,29.88,ENE,75,2.0,3.0,85,0.00,,CLR,0.00,0.00,VWS V14.01,2013-09-23 08:16:00,
2013-09-23 04:21:00,64.9,60.0,29.89,ESE,107,2.0,6.0,84,0.00,,CLR,0.00,0.00,VWS V14.01,2013-09-23 08:21:00,
2013-09-23 04:26:00,64.9,60.0,29.89,East,79,1.0,3.0,84,0.00,,CLR,0.00,0.00,VWS V14.01,2013-09-23 08:26:00,
2013-09-23 04:31:00,64.9,60.0,29.89,East,96,1.0,3.0,84,0.00,,CLR,0.00,0.00,VWS V14.01,2013-09-23 08:31:00,
2013-09-23 04:36:00,64.9,60.0,29.89,ENE,57,1.0,3.0,84,0.00,,CLR,0.00,0.00,VWS V14.01,2013-09-23 08:36:00,
2013-09-23 04:41:00,64.8,59.9,29.89,ENE,73,3.0,4.0,84,0.00,,CLR,0.00,0.00,VWS V14.01,2013-09-23 08:41:00,
2013-09-23 04:46:00,64.8,59.9,29.89,NE,53,2.0,3.0,84,0.00,,CLR,0.00,0.00,VWS V14.01,2013-09-23 08:46:00,
2013-09-23 04:51:00,64.7,59.8,29.89,NNE,30,1.0,3.0,84,0.00,,CLR,0.00,0.00,VWS V14.01,2013-09-23 08:51:00,
2013-09-23 04:56:00,64.6,59.7,29.90,NE,53,0.0,3.0,84,0.00,,CLR,0.00,0.00,VWS V14.01,2013-09-23 08:56:00,
2013-09-23 05:01:00,64.5,59.9,29.90,ENE,59,0.0,4.0,85,0.00,,CLR,0.00,0.00,VWS V14.01,2013-09-23 09:01:00,
2013-09-23 05:06:00,64.4,59.8,29.90,ENE,58,0.0,2.0,85,0.00,,CLR,0.00,0.00,VWS V14.01,2013-09-23 09:06:00,
2013-09-23 05:11:00,64.2,59.9,29.90,NE,51,1.0,2.0,86,0.00,,CLR,0.00,0.00,VWS V14.01,2013-09-23 09:11:00,
2013-09-23 05:16:00,64.1,59.8,29.90,East,86,0.0,2.0,86,0.00,,CLR,0.00,0.00,VWS V14.01,2013-09-23 09:16:00,
2013-09-23 05:21:00,63.9,59.6,29.90,East,81,1.0,1.0,86,0.00,,CLR,0.00,0.00,VWS V14.01,2013-09-23 09:21:00,
2013-09-23 05:26:00,63.8,59.9,29.90,NE,54,1.0,2.0,87,0.00,,CLR,0.00,0.00,VWS V14.01,2013-09-23 09:26:00,
2013-09-23 05:31:00,63.6,59.7,29.90,NE,55,0.0,2.0,87,0.00,,CLR,0.00,0.00,VWS V14.01,2013-09-23 09:31:00,
2013-09-23 05:36:00,63.5,59.6,29.90,NE,51,1.0,2.0,87,0.00,,CLR,0.00,0.00,VWS V14.01,2013-09-23 09:36:00,
2013-09-23 05:41:00,63.3,59.4,29.90,NE,44,0.0,2.0,87,0.00,,CLR,0.00,0.00,VWS V14.01,2013-09-23 09:41:00,
2013-09-23 05:46:00,63.1,59.5,29.90,ENE,66,1.0,3.0,88,0.00,,CLR,0.00,0.00,VWS V14.01,2013-09-23 09:46:00,
2013-09-23 05:51:00,63.0,59.4,29.90,NE,35,0.0,2.0,88,0.00,,CLR,0.00,0.00,VWS V14.01,2013-09-23 09:51:00,
2013-09-23 05:56:00,62.9,59.3,29.91,NNE,30,1.0,3.0,88,0.00,,CLR,0.00,0.00,VWS V14.01,2013-09-23 09:56:00,
2013-09-23 06:01:00,62.8,59.2,29.91,ENE,71,0.0,3.0,88,0.00,,CLR,0.00,0.00,VWS V14.01,2013-09-23 10:01:00,
2013-09-23 06:06:00,62.7,59.4,29.91,ENE,62,0.0,3.0,89,0.00,,CLR,0.00,0.00,VWS V14.01,2013-09-23 10:06:00,
2013-09-23 06:11:00,62.6,59.3,29.92,ENE,60,0.0,2.0,89,0.00,,CLR,0.00,0.00,VWS V14.01,2013-09-23 10:11:00,
2013-09-23 06:16:00,62.5,59.2,29.92,NE,56,0.0,3.0,89,0.00,,CLR,0.00,0.00,VWS V14.01,2013-09-23 10:16:00,
2013-09-23 06:21:00,62.4,59.1,29.92,NE,55,0.0,2.0,89,0.00,,CLR,0.00,0.00,VWS V14.01,2013-09-23 10:21:00,
2013-09-23 06:26:00,62.2,59.2,29.92,NNE,23,0.0,2.0,90,0.00,,CLR,0.00,0.00,VWS V14.01,2013-09-23 10:26:00,
2013-09-23 06:31:00,62.1,59.1,29.93,NNE,23,1.0,1.0,90,0.00,,CLR,0.00,0.00,VWS V14.01,2013-09-23 10:31:00,
2013-09-23 06:36:00,62.0,59.0,29.92,North,11,0.0,2.0,90,0.00,,CLR,0.00,0.00,VWS V14.01,2013-09-23 10:36:00,
2013-09-23 06:41:00,61.8,58.8,29.93,NE,48,0.0,2.0,90,0.00,,CLR,0.00,0.00,VWS V14.01,2013-09-23 10:41:00,
2013-09-23 06:46:00,61.7,58.7,29.93,NE,48,1.0,3.0,90,0.00,,CLR,0.00,0.00,VWS V14.01,2013-09-23 10:46:00,
2013-09-23 06:51:00,61.5,58.5,29.93,NE,41,1.0,2.0,90,0.00,,CLR,0.00,0.00,VWS V14.01,2013-09-23 10:51:00,
2013-09-23 06:56:00,61.4,58.8,29.93,NE,42,0.0,2.0,91,0.00,,CLR,0.00,0.00,VWS V14.01,2013-09-23 10:56:00,
2013-09-23 07:01:00,61.3,58.7,29.93,East,80,0.0,2.0,91,0.00,,CLR,0.00,0.00,VWS V14.01,2013-09-23 11:01:00,
2013-09-23 07:06:00,61.2,58.6,29.94,ENE,63,0.0,3.0,91,0.00,,CLR,0.00,5.00,VWS V14.01,2013-09-23 11:06:00,
2013-09-23 07:11:00,61.1,58.5,29.94,NE,51,0.0,3.0,91,0.00,,CLR,0.00,9.00,VWS V14.01,2013-09-23 11:11:00,
2013-09-23 07:16:00,61.1,58.5,29.94,NE,46,3.0,3.0,91,0.00,,CLR,0.00,11.00,VWS V14.01,2013-09-23 11:16:00,
2013-09-23 07:21:00,61.0,58.4,29.94,NNE,29,0.0,2.0,91,0.00,,CLR,0.00,14.00,VWS V14.01,2013-09-23 11:21:00,
2013-09-23 07:26:00,61.0,58.4,29.94,NE,53,0.0,4.0,91,0.00,,CLR,0.00,16.00,VWS V14.01,2013-09-23 11:26:00,
2013-09-23 07:31:00,60.9,58.3,29.95,NE,38,1.0,2.0,91,0.00,,CLR,0.00,21.00,VWS V14.01,2013-09-23 11:31:00,
2013-09-23 07:36:00,61.0,58.4,29.95,NE,44,1.0,1.0,91,0.00,,CLR,0.00,21.00,VWS V14.01,2013-09-23 11:36:00,
2013-09-23 07:41:00,61.1,58.5,29.95,North,360,2.0,4.0,91,0.00,,CLR,0.00,25.00,VWS V14.01,2013-09-23 11:41:00,
2013-09-23 07:46:00,61.3,58.7,29.95,NE,41,1.0,2.0,91,0.00,,CLR,0.00,90.00,VWS V14.01,2013-09-23 11:46:00,
2013-09-23 07:51:00,62.0,59.0,29.96,NE,34,2.0,2.0,90,0.00,,CLR,0.00,114.00,VWS V14.01,2013-09-23 11:51:00,
2013-09-23 07:56:00,62.6,59.0,29.96,North,355,2.0,4.0,88,0.00,,CLR,0.00,125.00,VWS V14.01,2013-09-23 11:56:00,
2013-09-23 08:01:00,63.2,59.0,29.96,ENE,62,2.0,2.0,86,0.00,,CLR,0.00,130.00,VWS V14.01,2013-09-23 12:01:00,
2013-09-23 08:06:00,63.9,59.3,29.97,ENE,59,2.0,3.0,85,0.00,,CLR,0.00,171.00,VWS V14.01,2013-09-23 12:06:00,
2013-09-23 08:11:00,64.3,59.4,29.97,NE,53,3.0,4.0,84,0.00,,CLR,0.00,185.00,VWS V14.01,2013-09-23 12:11:00,
2013-09-23 08:16:00,64.7,59.1,29.97,ENE,77,1.0,5.0,82,0.00,,CLR,0.00,206.00,VWS V14.01,2013-09-23 12:16:00,
2013-09-23 08:21:00,65.2,59.2,29.97,East,90,7.0,9.0,81,0.00,,CLR,0.00,223.00,VWS V14.01,2013-09-23 12:21:00,
2013-09-23 08:26:00,65.5,59.2,29.97,ENE,70,0.0,8.0,80,0.00,,CLR,0.00,241.00,VWS V14.01,2013-09-23 12:26:00,
2013-09-23 08:31:00,65.7,59.0,29.97,ENE,57,0.0,5.0,79,0.00,,CLR,0.00,234.00,VWS V14.01,2013-09-23 12:31:00,
2013-09-23 08:36:00,65.9,58.9,29.97,NE,34,1.0,6.0,78,0.00,,CLR,0.00,241.00,VWS V14.01,2013-09-23 12:36:00,
2013-09-23 08:41:00,66.2,59.5,29.97,ENE,65,1.0,4.0,79,0.00,,CLR,0.00,294.00,VWS V14.01,2013-09-23 12:41:00,
2013-09-23 08:46:00,66.5,59.1,29.97,ENE,71,3.0,7.0,77,0.00,,CLR,0.00,311.00,VWS V14.01,2013-09-23 12:46:00,
2013-09-23 08:51:00,66.5,59.1,29.98,NE,46,3.0,5.0,77,0.00,,CLR,0.00,330.00,VWS V14.01,2013-09-23 12:51:00,
2013-09-23 08:56:00,66.7,59.6,29.98,East,93,3.0,8.0,78,0.00,,CLR,0.00,334.00,VWS V14.01,2013-09-23 12:56:00,
2013-09-23 09:01:00,66.8,59.7,29.98,ENE,74,3.0,6.0,78,0.00,,CLR,0.00,323.00,VWS V14.01,2013-09-23 13:01:00,
2013-09-23 09:06:00,67.0,59.6,29.98,ENE,57,1.0,7.0,77,0.00,,CLR,0.00,385.00,VWS V14.01,2013-09-23 13:06:00,
2013-09-23 09:11:00,67.4,60.0,29.98,ENE,76,4.0,7.0,77,0.00,,CLR,0.00,403.00,VWS V14.01,2013-09-23 13:11:00,
2013-09-23 09:16:00,67.5,60.0,29.98,East,96,9.0,11.0,77,0.00,,CLR,0.00,417.00,VWS V14.01,2013-09-23 13:16:00,
2013-09-23 09:21:00,67.8,60.0,29.99,ENE,61,1.0,8.0,76,0.00,,CLR,0.00,383.00,VWS V14.01,2013-09-23 13:21:00,
2013-09-23 09:26:00,68.1,59.9,29.99,ENE,76,9.0,9.0,75,0.00,,CLR,0.00,385.00,VWS V14.01,2013-09-23 13:26:00,
2013-09-23 09:31:00,68.6,60.0,29.99,NE,56,4.0,9.0,74,0.00,,CLR,0.00,468.00,VWS V14.01,2013-09-23 13:31:00,
2013-09-23 09:36:00,68.7,59.3,29.99,NE,46,2.0,10.0,72,0.00,,CLR,0.00,485.00,VWS V14.01,2013-09-23 13:36:00,
2013-09-23 09:41:00,69.1,60.1,29.99,ENE,58,7.0,10.0,73,0.00,,CLR,0.00,503.00,VWS V14.01,2013-09-23 13:41:00,
2013-09-23 09:46:00,69.2,59.4,29.99,NNW,330,3.0,8.0,71,0.00,,CLR,0.00,519.00,VWS V14.01,2013-09-23 13:46:00,
2013-09-23 09:51:00,69.7,59.1,30.00,NNE,17,5.0,9.0,69,0.00,,CLR,0.00,534.00,VWS V14.01,2013-09-23 13:51:00,
2013-09-23 09:56:00,70.0,59.0,30.00,NE,42,2.0,9.0,68,0.00,,CLR,0.00,547.00,VWS V14.01,2013-09-23 13:56:00,
2013-09-23 10:01:00,70.3,59.7,30.00,East,88,6.0,8.0,69,0.00,,CLR,0.00,563.00,VWS V14.01,2013-09-23 14:01:00,
2013-09-23 10:06:00,70.6,59.1,30.00,NNE,32,2.0,10.0,67,0.00,,CLR,0.00,578.00,VWS V14.01,2013-09-23 14:06:00,
2013-09-23 10:11:00,71.2,60.1,29.99,NNE,28,3.0,10.0,68,0.00,,CLR,0.00,594.00,VWS V14.01,2013-09-23 14:11:00,
2013-09-23 10:16:00,72.2,60.2,29.99,NE,55,2.0,4.0,66,0.00,,CLR,0.00,610.00,VWS V14.01,2013-09-23 14:16:00,
2013-09-23 10:21:00,72.0,59.6,30.00,East,85,3.0,8.0,65,0.00,,CLR,0.00,621.00,VWS V14.01,2013-09-23 14:21:00,
2013-09-23 10:26:00,72.0,59.6,30.00,NE,44,1.0,9.0,65,0.00,,CLR,0.00,635.00,VWS V14.01,2013-09-23 14:26:00,
2013-09-23 10:31:00,72.4,58.7,30.00,NE,38,5.0,7.0,62,0.00,,CLR,0.00,650.00,VWS V14.01,2013-09-23 14:31:00,
2013-09-23 10:36:00,72.6,60.2,30.00,NE,42,1.0,11.0,65,0.00,,CLR,0.00,661.00,VWS V14.01,2013-09-23 14:36:00,
2013-09-23 10:41:00,72.8,59.5,30.00,East,82,10.0,11.0,63,0.00,,CLR,0.00,675.00,VWS V14.01,2013-09-23 14:41:00,
2013-09-23 10:46:00,72.5,58.8,30.00,ESE,107,8.0,9.0,62,0.00,,CLR,0.00,689.00,VWS V14.01,2013-09-23 14:46:00,
2013-09-23 10:51:00,73.3,59.0,30.00,NE,46,2.0,5.0,61,0.00,,CLR,0.00,698.00,VWS V14.01,2013-09-23 14:51:00,
2013-09-23 10:56:00,73.8,60.0,30.00,ENE,74,3.0,10.0,62,0.00,,CLR,0.00,707.00,VWS V14.01,2013-09-23 14:56:00,
2013-09-23 11:01:00,74.1,59.3,30.00,North,355,3.0,8.0,60,0.00,,CLR,0.00,717.00,VWS V14.01,2013-09-23 15:01:00,
2013-09-23 11:06:00,74.6,59.3,30.00,NE,51,3.0,11.0,59,0.00,,CLR,0.00,728.00,VWS V14.01,2013-09-23 15:06:00,
2013-09-23 11:11:00,74.2,58.5,30.00,ESE,123,9.0,11.0,58,0.00,,CLR,0.00,738.00,VWS V14.01,2013-09-23 15:11:00,
2013-09-23 11:16:00,74.4,58.2,30.00,NNE,28,2.0,10.0,57,0.00,,CLR,0.00,752.00,VWS V14.01,2013-09-23 15:16:00,
2013-09-23 11:21:00,74.4,58.7,30.00,ENE,78,7.0,8.0,58,0.00,,CLR,0.00,761.00,VWS V14.01,2013-09-23 15:21:00,
2013-09-23 11:26:00,74.7,59.0,30.00,NNE,16,1.0,8.0,58,0.00,,CLR,0.00,765.00,VWS V14.01,2013-09-23 15:26:00,
2013-09-23 11:31:00,74.8,57.6,30.00,ESE,104,9.0,11.0,55,0.00,,CLR,0.00,779.00,VWS V14.01,2013-09-23 15:31:00,
2013-09-23 11:36:00,75.5,58.7,30.01,East,88,2.0,8.0,56,0.00,,CLR,0.00,786.00,VWS V14.01,2013-09-23 15:36:00,
2013-09-23 11:41:00,76.0,59.2,30.01,ESE,108,0.0,6.0,56,0.00,,CLR,0.00,798.00,VWS V14.01,2013-09-23 15:41:00,
2013-09-23 11:46:00,75.1,58.8,30.01,ESE,122,4.0,9.0,57,0.00,,CLR,0.00,802.00,VWS V14.01,2013-09-23 15:46:00,
2013-09-23 11:51:00,75.1,58.8,30.01,East,86,1.0,8.0,57,0.00,,CLR,0.00,809.00,VWS V14.01,2013-09-23 15:51:00,
2013-09-23 11:56:00,75.8,59.5,30.01,East,86,9.0,9.0,57,0.00,,CLR,0.00,817.00,VWS V14.01,2013-09-23 15:56:00,
2013-09-23 12:01:00,74.9,58.7,30.01,East,88,3.0,11.0,57,0.00,,CLR,0.00,823.00,VWS V14.01,2013-09-23 16:01:00,
2013-09-23 12:06:00,74.8,59.5,30.01,ENE,58,1.0,9.0,59,0.00,,CLR,0.00,828.00,VWS V14.01,2013-09-23 16:06:00,
2013-09-23 12:11:00,75.2,59.9,30.01,ESE,107,7.0,9.0,59,0.00,,CLR,0.00,831.00,VWS V14.01,2013-09-23 16:11:00,
2013-09-23 12:16:00,75.1,59.3,30.01,ESE,104,3.0,9.0,58,0.00,,CLR,0.00,840.00,VWS V14.01,2013-09-23 16:16:00,
2013-09-23 12:21:00,75.5,59.2,30.01,East,82,5.0,8.0,57,0.00,,CLR,0.00,842.00,VWS V14.01,2013-09-23 16:21:00,
2013-09-23 12:26:00,75.3,59.5,30.01,East,95,6.0,10.0,58,0.00,,CLR,0.00,849.00,VWS V14.01,2013-09-23 16:26:00,
2013-09-23 12:31:00,75.1,59.8,30.01,East,83,6.0,8.0,59,0.00,,CLR,0.00,851.00,VWS V14.01,2013-09-23 16:31:00,
2013-09-23 12:36:00,75.0,60.2,30.00,ESE,102,4.0,10.0,60,0.00,,CLR,0.00,854.00,VWS V14.01,2013-09-23 16:36:00,
2013-09-23 12:41:00,75.1,60.3,30.01,ENE,73,4.0,9.0,60,0.00,,CLR,0.00,856.00,VWS V14.01,2013-09-23 16:41:00,
2013-09-23 12:46:00,75.2,59.9,30.01,ENE,59,3.0,9.0,59,0.00,,CLR,0.00,860.00,VWS V14.01,2013-09-23 16:46:00,
2013-09-23 12:51:00,74.9,60.1,30.01,ESE,111,7.0,7.0,60,0.00,,CLR,0.00,856.00,VWS V14.01,2013-09-23 16:51:00,
2013-09-23 12:56:00,74.9,60.1,30.01,East,86,7.0,8.0,60,0.00,,CLR,0.00,860.00,VWS V14.01,2013-09-23 16:56:00,
2013-09-23 13:01:00,75.2,58.9,30.01,NE,49,4.0,9.0,57,0.00,,CLR,0.00,861.00,VWS V14.01,2013-09-23 17:01:00,
2013-09-23 13:06:00,75.3,60.5,30.01,ESE,119,2.0,9.0,60,0.00,,CLR,0.00,863.00,VWS V14.01,2013-09-23 17:06:00,
2013-09-23 13:11:00,75.6,60.8,30.00,ESE,106,7.0,9.0,60,0.00,,CLR,0.00,863.00,VWS V14.01,2013-09-23 17:11:00,
2013-09-23 13:16:00,75.9,59.6,30.01,SE,144,5.0,8.0,57,0.00,,CLR,0.00,858.00,VWS V14.01,2013-09-23 17:16:00,
2013-09-23 13:21:00,75.5,60.2,30.00,East,82,3.0,9.0,59,0.00,,CLR,0.00,851.00,VWS V14.01,2013-09-23 17:21:00,
2013-09-23 13:26:00,75.3,60.0,30.00,ESE,105,7.0,9.0,59,0.00,,CLR,0.00,847.00,VWS V14.01,2013-09-23 17:26:00,
2013-09-23 13:31:00,75.4,60.1,30.00,East,98,8.0,9.0,59,0.00,,CLR,0.00,861.00,VWS V14.01,2013-09-23 17:31:00,
2013-09-23 13:36:00,75.7,60.4,30.00,ENE,75,4.0,9.0,59,0.00,,CLR,0.00,870.00,VWS V14.01,2013-09-23 17:36:00,
2013-09-23 13:41:00,76.2,60.8,30.00,ENE,59,5.0,8.0,59,0.00,,CLR,0.00,856.00,VWS V14.01,2013-09-23 17:41:00,
2013-09-23 13:46:00,75.9,60.6,30.00,ENE,63,3.0,9.0,59,0.00,,CLR,0.00,858.00,VWS V14.01,2013-09-23 17:46:00,
2013-09-23 13:51:00,76.2,60.4,30.00,ENE,74,9.0,9.0,58,0.00,,CLR,0.00,872.00,VWS V14.01,2013-09-23 17:51:00,
2013-09-23 13:56:00,75.8,60.5,30.00,East,84,3.0,10.0,59,0.00,,CLR,0.00,860.00,VWS V14.01,2013-09-23 17:56:00,
2013-09-23 14:01:00,76.5,60.6,30.00,ESE,105,7.0,7.0,58,0.00,,FEW060,0.00,851.00,VWS V14.01,2013-09-23 18:01:00,
2013-09-23 14:06:00,76.3,60.5,30.00,NE,53,1.0,8.0,58,0.00,,FEW060,0.00,847.00,VWS V14.01,2013-09-23 18:06:00,
2013-09-23 14:11:00,77.3,60.4,30.00,ESE,111,5.0,7.0,56,0.00,,FEW060,0.00,842.00,VWS V14.01,2013-09-23 18:11:00,
2013-09-23 14:16:00,76.9,60.5,30.00,ENE,61,2.0,11.0,57,0.00,,FEW060,0.00,877.00,VWS V14.01,2013-09-23 18:16:00,
2013-09-23 14:21:00,76.5,60.2,30.00,East,84,5.0,10.0,57,0.00,,FEW060,0.00,858.00,VWS V14.01,2013-09-23 18:21:00,
2013-09-23 14:26:00,76.7,60.3,29.99,ENE,76,3.0,9.0,57,0.00,,FEW060,0.00,888.00,VWS V14.01,2013-09-23 18:26:00,
2013-09-23 14:31:00,77.4,60.0,29.99,SSE,150,4.0,8.0,55,0.00,,FEW060,0.00,847.00,VWS V14.01,2013-09-23 18:31:00,
2013-09-23 14:36:00,77.8,60.4,29.99,ENE,60,4.0,9.0,55,0.00,,FEW060,0.00,823.00,VWS V14.01,2013-09-23 18:36:00,
2013-09-23 14:41:00,77.1,59.7,29.99,East,89,7.0,10.0,55,0.00,,FEW060,0.00,671.00,VWS V14.01,2013-09-23 18:41:00,
2013-09-23 14:46:00,76.6,59.2,29.99,East,89,7.0,9.0,55,0.00,,FEW060,0.00,793.00,VWS V14.01,2013-09-23 18:46:00,
2013-09-23 14:51:00,77.1,60.2,29.99,ESE,103,4.0,8.0,56,0.00,,FEW060,0.00,782.00,VWS V14.01,2013-09-23 18:51:00,
2013-09-23 14:56:00,76.7,59.8,29.99,NNE,33,4.0,7.0,56,0.00,,FEW060,0.00,772.00,VWS V14.01,2013-09-23 18:56:00,
2013-09-23 15:01:00,77.3,59.4,29.98,East,84,3.0,6.0,54,0.00,,SCT050,0.00,765.00,VWS V14.01,2013-09-23 19:01:00,
2013-09-23 15:06:00,77.1,59.2,29.98,ESE,106,5.0,9.0,54,0.00,,SCT050,0.00,768.00,VWS V14.01,2013-09-23 19:06:00,
2013-09-23 15:11:00,78.0,59.5,29.98,SE,128,0.0,5.0,53,0.00,,SCT050,0.00,751.00,VWS V14.01,2013-09-23 19:11:00,
2013-09-23 15:16:00,78.9,59.8,29.98,ENE,77,2.0,7.0,52,0.00,,SCT050,0.00,763.00,VWS V14.01,2013-09-23 19:16:00,
2013-09-23 15:21:00,78.1,60.6,29.98,NE,45,1.0,5.0,55,0.00,,SCT050,0.00,765.00,VWS V14.01,2013-09-23 19:21:00,
2013-09-23 15:26:00,79.5,60.9,29.98,ESE,108,5.0,10.0,53,0.00,,SCT050,0.00,782.00,VWS V14.01,2013-09-23 19:26:00,
2013-09-23 15:31:00,78.5,60.0,29.98,ENE,71,3.0,7.0,53,0.00,,SCT050,0.00,207.00,VWS V14.01,2013-09-23 19:31:00,
2013-09-23 15:36:00,76.9,59.5,29.98,ENE,75,2.0,8.0,55,0.00,,SCT050,0.00,163.00,VWS V14.01,2013-09-23 19:36:00,
2013-09-23 15:41:00,76.2,60.4,29.97,East,85,0.0,6.0,58,0.00,,SCT050,0.00,181.00,VWS V14.01,2013-09-23 19:41:00,
2013-09-23 15:46:00,77.3,60.4,29.97,ESE,111,7.0,7.0,56,0.00,,SCT050,0.00,756.00,VWS V14.01,2013-09-23 19:46:00,
2013-09-23 15:51:00,77.9,58.9,29.98,NE,49,3.0,8.0,52,0.00,,SCT050,0.00,768.00,VWS V14.01,2013-09-23 19:51:00,
2013-09-23 15:56:00,78.6,58.4,29.98,NNE,18,2.0,8.0,50,0.00,,SCT050,0.00,207.00,VWS V14.01,2013-09-23 19:56:00,
2013-09-23 16:01:00,78.3,59.2,29.98,ESE,117,3.0,7.0,52,0.00,,SCT050,0.00,204.00,VWS V14.01,2013-09-23 20:01:00,
2013-09-23 16:06:00,77.8,58.2,29.98,ENE,61,1.0,5.0,51,0.00,,SCT050,0.00,276.00,VWS V14.01,2013-09-23 20:06:00,
2013-09-23 16:11:00,79.1,58.9,29.98,NNE,26,1.0,6.0,50,0.00,,SCT050,0.00,703.00,VWS V14.01,2013-09-23 20:11:00,
2013-09-23 16:16:00,79.1,57.8,29.98,NW,315,4.0,10.0,48,0.00,,SCT050,0.00,631.00,VWS V14.01,2013-09-23 20:16:00,
2013-09-23 16:21:00,78.7,58.5,29.98,NNW,340,4.0,7.0,50,0.00,,SCT050,0.00,645.00,VWS V14.01,2013-09-23 20:21:00,
2013-09-23 16:26:00,78.0,57.9,29.98,ENE,69,2.0,5.0,50,0.00,,SCT050,0.00,135.00,VWS V14.01,2013-09-23 20:26:00,
2013-09-23 16:31:00,77.6,58.6,29.98,NNE,30,3.0,5.0,52,0.00,,SCT050,0.00,169.00,VWS V14.01,2013-09-23 20:31:00,
2013-09-23 16:36:00,77.5,58.5,29.98,NE,37,2.0,6.0,52,0.00,,SCT050,0.00,149.00,VWS V14.01,2013-09-23 20:36:00,
2013-09-23 16:41:00,77.2,57.7,29.98,NNE,14,2.0,5.0,51,0.00,,SCT050,0.00,506.00,VWS V14.01,2013-09-23 20:41:00,
2013-09-23 16:46:00,77.8,58.2,29.98,ENE,57,1.0,6.0,51,0.00,,SCT050,0.00,482.00,VWS V14.01,2013-09-23 20:46:00,
2013-09-23 16:51:00,78.4,58.8,29.98,NE,48,2.0,6.0,51,0.00,,SCT050,0.00,475.00,VWS V14.01,2013-09-23 20:51:00,
2013-09-23 16:56:00,78.1,58.0,29.98,NE,51,1.0,7.0,50,0.00,,SCT050,0.00,443.00,VWS V14.01,2013-09-23 20:56:00,
2013-09-23 17:01:00,78.0,58.4,29.98,NE,34,2.0,7.0,51,0.00,,SCT050,0.00,410.00,VWS V14.01,2013-09-23 21:01:00,
2013-09-23 17:06:00,77.9,58.9,29.98,WNW,282,3.0,6.0,52,0.00,,SCT050,0.00,390.00,VWS V14.01,2013-09-23 21:06:00,
2013-09-23 17:11:00,78.0,59.0,29.98,NNE,31,3.0,7.0,52,0.00,,SCT050,0.00,373.00,VWS V14.01,2013-09-23 21:11:00,
2013-09-23 17:16:00,77.9,58.9,29.98,ENE,73,2.0,6.0,52,0.00,,SCT050,0.00,360.00,VWS V14.01,2013-09-23 21:16:00,
2013-09-23 17:21:00,78.2,59.2,29.98,NE,49,2.0,5.0,52,0.00,,SCT050,0.00,265.00,VWS V14.01,2013-09-23 21:21:00,
2013-09-23 17:26:00,77.7,58.2,29.98,East,97,5.0,6.0,51,0.00,,SCT050,0.00,69.00,VWS V14.01,2013-09-23 21:26:00,
2013-09-23 17:31:00,76.5,58.6,29.98,ENE,63,1.0,2.0,54,0.00,,SCT050,0.00,271.00,VWS V14.01,2013-09-23 21:31:00,
2013-09-23 17:36:00,76.6,58.7,29.98,ENE,63,4.0,5.0,54,0.00,,SCT050,0.00,281.00,VWS V14.01,2013-09-23 21:36:00,
2013-09-23 17:41:00,77.0,58.6,29.98,NE,43,3.0,6.0,53,0.00,,SCT050,0.00,272.00,VWS V14.01,2013-09-23 21:41:00,
2013-09-23 17:46:00,77.0,58.6,29.98,NW,308,1.0,4.0,53,0.00,,SCT050,0.00,248.00,VWS V14.01,2013-09-23 21:46:00,
2013-09-23 17:51:00,76.9,58.5,29.99,NNE,22,3.0,7.0,53,0.00,,SCT050,0.00,223.00,VWS V14.01,2013-09-23 21:51:00,
2013-09-23 17:56:00,76.6,58.2,29.99,NE,49,2.0,9.0,53,0.00,,SCT050,0.00,200.00,VWS V14.01,2013-09-23 21:56:00,
2013-09-23 18:01:00,76.2,58.9,29.99,ENE,78,1.0,6.0,55,0.00,,SCT050,0.00,178.00,VWS V14.01,2013-09-23 22:01:00,
2013-09-23 18:06:00,76.0,58.7,29.99,ENE,70,2.0,5.0,55,0.00,,SCT050,0.00,153.00,VWS V14.01,2013-09-23 22:06:00,
2013-09-23 18:11:00,75.8,58.5,29.99,NE,37,0.0,5.0,55,0.00,,SCT050,0.00,135.00,VWS V14.01,2013-09-23 22:11:00,
2013-09-23 18:16:00,75.3,58.0,29.99,NE,53,1.0,5.0,55,0.00,,SCT050,0.00,116.00,VWS V14.01,2013-09-23 22:16:00,
2013-09-23 18:21:00,75.1,57.8,29.99,ENE,67,3.0,7.0,55,0.00,,SCT050,0.00,97.00,VWS V14.01,2013-09-23 22:21:00,
2013-09-23 18:26:00,74.9,58.2,29.99,NNE,33,2.0,6.0,56,0.00,,SCT050,0.00,79.00,VWS V14.01,2013-09-23 22:26:00,
2013-09-23 18:31:00,74.5,57.8,29.99,ENE,57,2.0,4.0,56,0.00,,SCT050,0.00,58.00,VWS V14.01,2013-09-23 22:31:00,
2013-09-23 18:36:00,74.2,58.0,29.99,NE,51,1.0,5.0,57,0.00,,SCT050,0.00,28.00,VWS V14.01,2013-09-23 22:36:00,
2013-09-23 18:41:00,73.8,57.6,29.99,NNE,22,4.0,4.0,57,0.00,,SCT050,0.00,25.00,VWS V14.01,2013-09-23 22:41:00,
2013-09-23 18:46:00,73.4,58.2,29.99,NNE,28,1.0,2.0,59,0.00,,SCT050,0.00,21.00,VWS V14.01,2013-09-23 22:46:00,
2013-09-23 18:51:00,73.1,57.9,29.99,NE,42,1.0,3.0,59,0.00,,SCT050,0.00,18.00,VWS V14.01,2013-09-23 22:51:00,
2013-09-23 18:56:00,72.9,57.8,30.00,ENE,62,2.0,3.0,59,0.00,,SCT050,0.00,14.00,VWS V14.01,2013-09-23 22:56:00,
2013-09-23 19:01:00,72.6,57.9,30.00,NE,34,1.0,2.0,60,0.00,,FEW050,0.00,11.00,VWS V14.01,2013-09-23 23:01:00,
2013-09-23 19:06:00,72.1,58.4,30.00,ENE,66,1.0,3.0,62,0.00,,FEW050,0.00,9.00,VWS V14.01,2013-09-23 23:06:00,
2013-09-23 19:11:00,71.8,58.1,30.00,ENE,65,0.0,3.0,62,0.00,,FEW050,0.00,5.00,VWS V14.01,2013-09-23 23:11:00,
2013-09-23 19:16:00,71.5,58.7,30.00,NE,55,1.0,2.0,64,0.00,,FEW050,0.00,0.00,VWS V14.01,2013-09-23 23:16:00,
2013-09-23 19:21:00,71.1,58.3,30.00,NE,54,0.0,2.0,64,0.00,,FEW050,0.00,0.00,VWS V14.01,2013-09-23 23:21:00,
2013-09-23 19:26:00,70.8,58.5,30.00,NNE,22,1.0,2.0,65,0.00,,FEW050,0.00,0.00,VWS V14.01,2013-09-23 23:26:00,
2013-09-23 19:31:00,70.3,58.4,30.00,NNE,22,1.0,2.0,66,0.00,,FEW050,0.00,0.00,VWS V14.01,2013-09-23 23:31:00,
2013-09-23 19:36:00,69.9,58.9,30.00,NNE,22,0.0,2.0,68,0.00,,FEW050,0.00,0.00,VWS V14.01,2013-09-23 23:36:00,
2013-09-23 19:41:00,69.4,58.8,30.00,NNE,22,0.0,1.0,69,0.00,,FEW050,0.00,0.00,VWS V14.01,2013-09-23 23:41:00,
2013-09-23 19:46:00,69.1,58.9,30.00,NNE,22,1.0,2.0,70,0.00,,FEW050,0.00,0.00,VWS V14.01,2013-09-23 23:46:00,
2013-09-23 19:51:00,68.9,58.3,30.00,NNE,22,0.0,1.0,69,0.00,,FEW050,0.00,0.00,VWS V14.01,2013-09-23 23:51:00,
2013-09-23 19:56:00,68.8,58.6,30.01,North,350,0.0,1.0,70,0.00,,FEW050,0.00,0.00,VWS V14.01,2013-09-23 23:56:00,
2013-09-23 20:01:00,68.5,58.3,30.01,NNW,344,1.0,2.0,70,0.00,,FEW050,0.00,0.00,VWS V14.01,2013-09-24 00:01:00,
2013-09-23 20:06:00,68.4,58.2,30.01,NNW,346,0.0,3.0,70,0.00,,FEW050,0.00,0.00,VWS V14.01,2013-09-24 00:06:00,
2013-09-23 20:11:00,68.1,58.3,30.01,NNW,346,0.0,0.0,71,0.00,,FEW050,0.00,0.00,VWS V14.01,2013-09-24 00:11:00,
2013-09-23 20:16:00,67.7,58.7,30.01,NNW,346,0.0,1.0,73,0.00,,FEW050,0.00,0.00,VWS V14.01,2013-09-24 00:16:00,
2013-09-23 20:21:00,67.4,58.5,30.01,North,5,0.0,2.0,73,0.00,,FEW050,0.00,0.00,VWS V14.01,2013-09-24 00:21:00,
2013-09-23 20:26:00,67.4,58.1,30.01,North,5,0.0,1.0,72,0.00,,FEW050,0.00,0.00,VWS V14.01,2013-09-24 00:26:00,
2013-09-23 20:31:00,67.3,58.0,30.01,North,5,0.0,1.0,72,0.00,,FEW050,0.00,0.00,VWS V14.01,2013-09-24 00:31:00,
2013-09-23 20:36:00,67.1,58.2,30.01,North,5,0.0,1.0,73,0.00,,FEW050,0.00,0.00,VWS V14.01,2013-09-24 00:36:00,
2013-09-23 20:41:00,67.0,58.1,30.02,North,5,0.0,1.0,73,0.00,,FEW050,0.00,0.00,VWS V14.01,2013-09-24 00:41:00,
2013-09-23 20:46:00,67.0,58.1,30.01,North,5,0.0,1.0,73,0.00,,FEW050,0.00,0.00,VWS V14.01,2013-09-24 00:46:00,
2013-09-23 20:51:00,66.8,57.9,30.02,North,5,0.0,0.0,73,0.00,,FEW050,0.00,0.00,VWS V14.01,2013-09-24 00:51:00,
2013-09-23 20:56:00,66.8,58.3,30.02,North,5,0.0,0.0,74,0.00,,FEW050,0.00,0.00,VWS V14.01,2013-09-24 00:56:00,
2013-09-23 21:01:00,66.4,57.9,30.02,North,5,0.0,1.0,74,0.00,,CLR,0.00,0.00,VWS V14.01,2013-09-24 01:01:00,
2013-09-23 21:06:00,66.3,57.8,30.02,North,5,0.0,1.0,74,0.00,,CLR,0.00,0.00,VWS V14.01,2013-09-24 01:06:00,
2013-09-23 21:11:00,66.0,57.9,30.02,North,5,0.0,0.0,75,0.00,,CLR,0.00,0.00,VWS V14.01,2013-09-24 01:11:00,
2013-09-23 21:16:00,65.9,57.8,30.02,North,5,0.0,1.0,75,0.00,,CLR,0.00,0.00,VWS V14.01,2013-09-24 01:16:00,
2013-09-23 21:21:00,65.9,57.8,30.02,North,5,0.0,1.0,75,0.00,,CLR,0.00,0.00,VWS V14.01,2013-09-24 01:21:00,
2013-09-23 21:26:00,65.9,57.8,30.03,North,360,0.0,1.0,75,0.00,,CLR,0.00,0.00,VWS V14.01,2013-09-24 01:26:00,
2013-09-23 21:31:00,65.8,58.0,30.03,North,360,0.0,0.0,76,0.00,,CLR,0.00,0.00,VWS V14.01,2013-09-24 01:31:00,
2013-09-23 21:36:00,65.7,57.9,30.03,North,360,0.0,0.0,76,0.00,,CLR,0.00,0.00,VWS V14.01,2013-09-24 01:36:00,
2013-09-23 21:41:00,65.5,58.1,30.03,North,360,0.0,1.0,77,0.00,,CLR,0.00,0.00,VWS V14.01,2013-09-24 01:41:00,
2013-09-23 21:46:00,65.2,58.2,30.03,North,360,0.0,0.0,78,0.00,,CLR,0.00,0.00,VWS V14.01,2013-09-24 01:46:00,
2013-09-23 21:51:00,65.0,58.3,30.03,North,360,0.0,0.0,79,0.00,,CLR,0.00,0.00,VWS V14.01,2013-09-24 01:51:00,
2013-09-23 21:56:00,64.8,58.5,30.03,North,360,0.0,0.0,80,0.00,,CLR,0.00,0.00,VWS V14.01,2013-09-24 01:56:00,
2013-09-23 22:01:00,64.8,58.5,30.03,North,360,0.0,0.0,80,0.00,,CLR,0.00,0.00,VWS V14.01,2013-09-24 02:01:00,
2013-09-23 22:06:00,64.8,58.1,30.03,ENE,65,0.0,2.0,79,0.00,,CLR,0.00,0.00,VWS V14.01,2013-09-24 02:06:00,
2013-09-23 22:11:00,64.8,58.5,30.03,ENE,65,0.0,0.0,80,0.00,,CLR,0.00,0.00,VWS V14.01,2013-09-24 02:11:00,
2013-09-23 22:16:00,64.9,58.6,30.03,ENE,65,0.0,0.0,80,0.00,,CLR,0.00,0.00,VWS V14.01,2013-09-24 02:16:00,
2013-09-23 22:21:00,64.8,58.5,30.03,ENE,65,0.0,1.0,80,0.00,,CLR,0.00,0.00,VWS V14.01,2013-09-24 02:21:00,
2013-09-23 22:26:00,64.7,58.4,30.04,NE,55,0.0,0.0,80,0.00,,CLR,0.00,0.00,VWS V14.01,2013-09-24 02:26:00,
2013-09-23 22:30:00,64.6,58.7,30.03,NE,55,0.0,0.0,81,0.00,,CLR,0.00,0.00,VWS V14.01,2013-09-24 02:30:00,
2013-09-23 22:36:00,64.4,58.5,30.03,NE,55,0.0,0.0,81,0.00,,CLR,0.00,0.00,VWS V14.01,2013-09-24 02:36:00,
2013-09-23 22:41:00,64.2,58.6,30.03,NE,55,0.0,0.0,82,0.00,,CLR,0.00,0.00,VWS V14.01,2013-09-24 02:41:00,
2013-09-23 22:46:00,64.1,58.5,30.03,NE,55,0.0,1.0,82,0.00,,CLR,0.00,0.00,VWS V14.01,2013-09-24 02:46:00,
2013-09-23 22:51:00,64.1,58.2,30.03,NE,55,0.0,0.0,81,0.00,,CLR,0.00,0.00,VWS V14.01,2013-09-24 02:51:00,
2013-09-23 22:56:00,64.0,58.4,30.04,NE,55,0.0,0.0,82,0.00,,CLR,0.00,0.00,VWS V14.01,2013-09-24 02:56:00,
2013-09-23 23:01:00,63.8,58.2,30.04,NE,55,0.0,0.0,82,0.00,,CLR,0.00,0.00,VWS V14.01,2013-09-24 03:01:00,
2013-09-23 23:06:00,63.8,58.5,30.03,NE,55,0.0,1.0,83,0.00,,CLR,0.00,0.00,VWS V14.01,2013-09-24 03:06:00,
2013-09-23 23:11:00,63.6,58.3,30.04,NE,55,0.0,0.0,83,0.00,,CLR,0.00,0.00,VWS V14.01,2013-09-24 03:11:00,
2013-09-23 23:16:00,63.6,58.3,30.04,NE,55,0.0,1.0,83,0.00,,CLR,0.00,0.00,VWS V14.01,2013-09-24 03:16:00,
2013-09-23 23:21:00,63.8,58.2,30.04,NE,55,0.0,1.0,82,0.00,,CLR,0.00,0.00,VWS V14.01,2013-09-24 03:21:00,
2013-09-23 23:26:00,64.1,58.5,30.04,NE,55,0.0,2.0,82,0.00,,CLR,0.00,0.00,VWS V14.01,2013-09-24 03:26:00,
2013-09-23 23:31:00,64.4,58.5,30.04,NE,55,0.0,1.0,81,0.00,,CLR,0.00,0.00,VWS V14.01,2013-09-24 03:31:00,
2013-09-23 23:36:00,64.7,58.7,30.04,NE,55,1.0,1.0,81,0.00,,CLR,0.00,0.00,VWS V14.01,2013-09-24 03:36:00,
2013-09-23 23:41:00,64.9,58.6,30.04,NE,55,0.0,2.0,80,0.00,,CLR,0.00,0.00,VWS V14.01,2013-09-24 03:41:00,
2013-09-23 23:46:00,65.2,58.9,30.04,NE,55,1.0,1.0,80,0.00,,CLR,0.00,0.00,VWS V14.01,2013-09-24 03:46:00,
2013-09-23 23:51:00,65.3,59.0,30.04,NE,55,1.0,1.0,80,0.00,,CLR,0.00,0.00,VWS V14.01,2013-09-24 03:51:00,
2013-09-23 23:56:00,65.0,59.0,30.04,NE,55,0.0,2.0,81,0.00,,CLR,0.00,0.00,VWS V14.01,2013-09-24 03:56:00,